Time,TemperatureF,DewpointF,PressureIn,WindDirection,WindDirectionDegrees,WindSpeedMPH,WindSpeedGustMPH,Humidity,HourlyPrecipIn,Conditions,Clouds,dailyrainin,SoftwareType,DateUTC
2013-04-18 00:04:00,62.6,54.9,29.00,SE,138,0.0,0.0,76,0.00,,SKC,0.00,VWS V14.00,2013-04-18 04:04:00,
2013-04-18 00:09:00,62.6,54.9,29.00,SSE,149,0.0,0.0,76,0.00,,SKC,0.00,VWS V14.00,2013-04-18 04:09:00,
2013-04-18 00:10:00,62.6,54.9,29.00,SSE,149,0.0,0.0,76,0.00,,SKC,0.00,VWS V14.00,2013-04-18 04:10:00,
2013-04-18 00:14:00,62.6,54.9,29.00,SSE,149,0.0,0.0,76,0.00,,SKC,0.00,VWS V14.00,2013-04-18 04:14:00,
2013-04-18 00:19:00,62.4,55.1,29.00,SSE,149,0.0,0.0,77,0.00,,SKC,0.00,VWS V14.00,2013-04-18 04:19:00,
2013-04-18 00:24:00,62.4,55.1,29.00,SSE,149,0.0,0.0,77,0.00,,SKC,0.00,VWS V14.00,2013-04-18 04:24:00,
2013-04-18 00:29:00,62.2,55.0,29.00,SSE,149,0.0,0.0,77,0.00,,SKC,0.00,VWS V14.00,2013-04-18 04:29:00,
2013-04-18 00:34:00,62.2,55.0,29.00,SSE,149,0.0,0.0,77,0.00,,SKC,0.00,VWS V14.00,2013-04-18 04:34:00,
2013-04-18 00:39:00,62.1,54.8,29.00,SSE,149,0.0,0.0,77,0.00,,SKC,0.00,VWS V14.00,2013-04-18 04:39:00,
2013-04-18 00:40:00,62.1,54.8,29.00,SSE,149,0.0,0.0,77,0.00,,SKC,0.00,VWS V14.00,2013-04-18 04:40:00,
2013-04-18 00:49:00,61.9,54.6,29.00,SSE,149,0.0,0.0,77,0.00,,SKC,0.00,VWS V14.00,2013-04-18 04:49:00,
2013-04-18 00:54:00,61.7,54.4,29.00,SSE,149,0.0,0.0,77,0.00,,SKC,0.00,VWS V14.00,2013-04-18 04:54:00,
2013-04-18 00:59:00,61.5,54.2,29.00,SSE,149,0.0,0.0,77,0.00,,SKC,0.00,VWS V14.00,2013-04-18 04:59:00,
2013-04-18 01:04:00,61.3,54.1,29.00,SSE,149,0.0,0.0,77,0.00,,SKC,0.00,VWS V14.00,2013-04-18 05:04:00,
2013-04-18 01:09:00,61.3,54.1,29.00,SSE,149,0.0,0.0,77,0.00,,SKC,0.00,VWS V14.00,2013-04-18 05:09:00,
2013-04-18 01:14:00,61.3,54.1,29.00,SSE,149,0.0,0.0,77,0.00,,SKC,0.00,VWS V14.00,2013-04-18 05:14:00,
2013-04-18 01:19:00,61.2,53.9,29.00,SSE,149,0.0,0.0,77,0.00,,SKC,0.00,VWS V14.00,2013-04-18 05:19:00,
2013-04-18 01:24:00,61.0,53.7,29.00,SSE,149,0.0,0.0,77,0.00,,SKC,0.00,VWS V14.00,2013-04-18 05:24:00,
2013-04-18 01:30:00,61.0,54.1,29.00,SSE,149,0.0,0.0,78,0.00,,SKC,0.00,VWS V14.00,2013-04-18 05:30:00,
2013-04-18 01:35:00,61.0,53.7,29.00,SSE,149,0.0,0.0,77,0.00,,SKC,0.00,VWS V14.00,2013-04-18 05:35:00,
2013-04-18 01:40:00,61.0,53.7,29.00,SSE,149,0.0,0.0,77,0.00,,SKC,0.00,VWS V14.00,2013-04-18 05:40:00,
2013-04-18 01:45:00,61.0,53.7,29.00,SSE,149,0.0,0.0,77,0.00,,SKC,0.00,VWS V14.00,2013-04-18 05:45:00,
2013-04-18 01:50:00,60.6,53.7,29.00,SSE,149,0.0,0.0,78,0.00,,SKC,0.00,VWS V14.00,2013-04-18 05:50:00,
2013-04-18 01:55:00,60.6,53.7,29.00,SSE,149,0.0,0.0,78,0.00,,SKC,0.00,VWS V14.00,2013-04-18 05:55:00,
2013-04-18 02:00:00,60.6,53.7,29.00,SSE,149,0.0,0.0,78,0.00,,SKC,0.24,VWS V14.00,2013-04-18 06:00:00,
2013-04-18 02:05:00,60.4,53.6,29.00,SSE,149,0.0,0.0,78,0.00,,SKC,0.00,VWS V14.00,2013-04-18 06:05:00,
2013-04-18 02:10:00,60.4,53.6,29.00,SSE,149,0.0,0.0,78,0.00,,SKC,0.00,VWS V14.00,2013-04-18 06:10:00,
2013-04-18 02:15:00,60.6,53.7,29.00,SSE,149,0.0,0.0,78,0.00,,SKC,0.00,VWS V14.00,2013-04-18 06:15:00,
2013-04-18 02:20:00,60.6,53.7,29.00,SSE,149,0.0,0.0,78,0.00,,SKC,0.00,VWS V14.00,2013-04-18 06:20:00,
2013-04-18 02:25:00,60.6,53.7,29.00,SSE,149,0.0,0.0,78,0.00,,SKC,0.00,VWS V14.00,2013-04-18 06:25:00,
2013-04-18 02:30:00,60.6,53.7,29.00,SSE,149,0.0,0.0,78,0.00,,SKC,0.00,VWS V14.00,2013-04-18 06:30:00,
2013-04-18 02:35:00,60.4,53.6,29.00,SSE,149,0.0,0.0,78,0.00,,SKC,0.00,VWS V14.00,2013-04-18 06:35:00,
2013-04-18 02:40:00,60.4,53.6,29.00,SSE,149,0.0,0.0,78,0.00,,SKC,0.00,VWS V14.00,2013-04-18 06:40:00,
2013-04-18 02:45:00,60.4,53.9,29.00,SSE,149,0.0,0.0,79,0.00,,SKC,0.00,VWS V14.00,2013-04-18 06:45:00,
2013-04-18 02:50:00,60.4,53.9,29.00,SSE,149,0.0,0.0,79,0.00,,SKC,0.00,VWS V14.00,2013-04-18 06:50:00,
2013-04-18 02:55:00,60.4,53.9,29.00,SSE,149,0.0,0.0,79,0.00,,SKC,0.00,VWS V14.00,2013-04-18 06:55:00,
2013-04-18 03:00:00,60.4,53.9,29.00,SSE,149,0.0,0.0,79,0.00,,SKC,0.00,VWS V14.00,2013-04-18 07:00:00,
2013-04-18 03:05:00,60.4,53.9,29.00,SSE,149,0.0,0.0,79,0.00,,SKC,0.00,VWS V14.00,2013-04-18 07:05:00,
2013-04-18 03:10:00,60.4,53.9,29.00,SSE,149,0.0,0.0,79,0.00,,SKC,0.00,VWS V14.00,2013-04-18 07:10:00,
2013-04-18 03:15:00,60.4,53.9,29.00,SSE,149,0.0,0.0,79,0.00,,SKC,0.00,VWS V14.00,2013-04-18 07:15:00,
2013-04-18 03:20:00,60.4,53.9,29.00,SSE,149,0.0,0.0,79,0.00,,SKC,0.00,VWS V14.00,2013-04-18 07:20:00,
2013-04-18 03:25:00,60.4,53.9,29.00,SSE,149,0.0,0.0,79,0.00,,SKC,0.00,VWS V14.00,2013-04-18 07:25:00,
2013-04-18 03:30:00,60.4,53.9,29.00,SSE,149,0.0,0.0,79,0.00,,SKC,0.00,VWS V14.00,2013-04-18 07:30:00,
2013-04-18 03:35:00,60.4,53.9,28.97,SSE,149,0.0,0.0,79,0.00,,SKC,0.00,VWS V14.00,2013-04-18 07:35:00,
2013-04-18 03:40:00,60.3,53.7,28.97,SSE,149,0.0,0.0,79,0.00,,SKC,0.00,VWS V14.00,2013-04-18 07:40:00,
2013-04-18 03:45:00,60.3,53.7,28.97,SSE,149,0.0,0.0,79,0.00,,SKC,0.00,VWS V14.00,2013-04-18 07:45:00,
2013-04-18 03:50:00,60.3,53.7,28.97,SSE,149,0.0,0.0,79,0.00,,SKC,0.00,VWS V14.00,2013-04-18 07:50:00,
2013-04-18 03:55:00,60.3,53.7,28.97,SSE,149,0.0,0.0,79,0.00,,SKC,0.00,VWS V14.00,2013-04-18 07:55:00,
2013-04-18 04:00:00,60.1,53.6,28.97,SSE,149,0.0,0.0,79,0.00,,SKC,0.00,VWS V14.00,2013-04-18 08:00:00,
2013-04-18 04:05:00,60.1,53.6,29.00,SSE,149,0.0,0.0,79,0.00,,SKC,0.00,VWS V14.00,2013-04-18 08:05:00,
2013-04-18 04:10:00,59.9,53.7,29.00,SSE,149,0.0,0.0,80,0.00,,SKC,0.00,VWS V14.00,2013-04-18 08:10:00,
2013-04-18 04:15:00,59.9,53.7,29.00,SSE,149,0.0,0.0,80,0.00,,SKC,0.00,VWS V14.00,2013-04-18 08:15:00,
2013-04-18 04:20:00,60.1,53.9,29.00,SSE,149,0.0,0.0,80,0.00,,SKC,0.00,VWS V14.00,2013-04-18 08:20:00,
2013-04-18 04:25:00,60.1,53.9,29.00,SSE,149,0.0,0.0,80,0.00,,SKC,0.00,VWS V14.00,2013-04-18 08:25:00,
2013-04-18 04:30:00,59.9,53.7,29.00,SSE,149,0.0,0.0,80,0.00,,SKC,0.00,VWS V14.00,2013-04-18 08:30:00,
2013-04-18 04:35:00,59.9,53.7,29.00,SSE,149,0.0,0.0,80,0.00,,SKC,0.00,VWS V14.00,2013-04-18 08:35:00,
2013-04-18 04:40:00,60.1,53.9,29.00,SSE,149,0.0,0.0,80,0.00,,SKC,0.00,VWS V14.00,2013-04-18 08:40:00,
2013-04-18 04:45:00,59.9,53.7,29.00,SSE,149,0.0,0.0,80,0.00,,SKC,0.00,VWS V14.00,2013-04-18 08:45:00,
2013-04-18 04:50:00,59.9,53.7,28.97,SSE,149,0.0,0.0,80,0.00,,SKC,0.00,VWS V14.00,2013-04-18 08:50:00,
2013-04-18 04:55:00,60.1,53.9,28.97,SSE,149,0.0,0.0,80,0.00,,SKC,0.00,VWS V14.00,2013-04-18 08:55:00,
2013-04-18 05:00:00,59.9,53.7,28.97,SSE,149,0.0,0.0,80,0.00,,SKC,0.00,VWS V14.00,2013-04-18 09:00:00,
2013-04-18 05:05:00,59.9,53.7,28.97,SSE,149,0.0,0.0,80,0.00,,SKC,0.00,VWS V14.00,2013-04-18 09:05:00,
2013-04-18 05:10:00,59.9,53.7,28.97,SSE,149,0.0,0.0,80,0.00,,SKC,0.00,VWS V14.00,2013-04-18 09:10:00,
2013-04-18 05:15:00,59.7,53.5,28.97,SSE,149,0.0,0.0,80,0.00,,SKC,0.00,VWS V14.00,2013-04-18 09:15:00,
2013-04-18 05:20:00,59.7,53.5,28.97,SSE,149,0.0,0.0,80,0.00,,SKC,0.00,VWS V14.00,2013-04-18 09:20:00,
2013-04-18 05:25:00,59.7,53.5,28.97,SSE,149,0.0,0.0,80,0.00,,SKC,0.00,VWS V14.00,2013-04-18 09:25:00,
2013-04-18 05:30:00,59.7,53.5,28.97,SSE,149,0.0,0.0,80,0.00,,SKC,0.00,VWS V14.00,2013-04-18 09:30:00,
2013-04-18 05:35:00,59.7,53.5,28.97,SSE,149,0.0,0.0,80,0.00,,SKC,0.00,VWS V14.00,2013-04-18 09:35:00,
2013-04-18 05:40:00,59.7,53.9,28.97,SSE,149,0.0,0.0,81,0.00,,SKC,0.00,VWS V14.00,2013-04-18 09:40:00,
2013-04-18 05:45:00,59.7,53.9,28.97,SSE,149,0.0,0.0,81,0.00,,SKC,0.00,VWS V14.00,2013-04-18 09:45:00,
2013-04-18 05:50:00,59.7,53.9,28.97,SSE,149,0.0,0.0,81,0.00,,SKC,0.00,VWS V14.00,2013-04-18 09:50:00,
2013-04-18 05:55:00,59.7,53.9,28.97,SSE,149,0.0,0.0,81,0.00,,SKC,0.00,VWS V14.00,2013-04-18 09:55:00,
2013-04-18 06:00:00,59.7,53.9,28.97,SSE,149,0.0,0.0,81,0.00,,SKC,0.00,VWS V14.00,2013-04-18 10:00:00,
2013-04-18 06:05:00,59.7,53.9,28.97,SSE,149,0.0,0.0,81,0.00,,SKC,0.00,VWS V14.00,2013-04-18 10:05:00,
2013-04-18 06:10:00,59.7,53.9,28.97,SSE,149,0.0,0.0,81,0.00,,SKC,0.00,VWS V14.00,2013-04-18 10:10:00,
2013-04-18 06:15:00,59.5,53.7,28.97,SSE,149,0.0,0.0,81,0.00,,SKC,0.00,VWS V14.00,2013-04-18 10:15:00,
2013-04-18 06:20:00,59.4,53.5,28.97,SSE,149,0.0,0.0,81,0.00,,SKC,0.00,VWS V14.00,2013-04-18 10:20:00,
2013-04-18 06:25:00,59.4,53.5,28.97,NNE,30,0.0,0.0,81,0.00,,SKC,0.00,VWS V14.00,2013-04-18 10:25:00,
2013-04-18 06:31:00,59.4,53.5,28.97,NNE,30,0.0,0.0,81,0.00,,SKC,0.00,VWS V14.00,2013-04-18 10:31:00,
2013-04-18 06:36:00,59.4,53.5,28.97,NNE,30,0.0,0.0,81,0.00,,SKC,0.00,VWS V14.00,2013-04-18 10:36:00,
2013-04-18 06:41:00,59.2,53.4,28.97,NNE,30,0.0,0.0,81,0.00,,SKC,0.00,VWS V14.00,2013-04-18 10:41:00,
2013-04-18 06:46:00,59.2,53.7,28.97,NNE,30,0.0,0.0,82,0.00,,SKC,0.00,VWS V14.00,2013-04-18 10:46:00,
2013-04-18 06:51:00,59.2,53.7,28.97,NNE,30,0.0,0.0,82,0.00,,SKC,0.00,VWS V14.00,2013-04-18 10:51:00,
2013-04-18 06:56:00,59.2,53.7,28.97,NNE,30,0.0,0.0,82,0.00,,SKC,0.00,VWS V14.00,2013-04-18 10:56:00,
2013-04-18 07:01:00,59.0,53.5,28.97,NNE,30,0.0,0.0,82,0.00,,SKC,0.00,VWS V14.00,2013-04-18 11:01:00,
2013-04-18 07:06:00,59.0,53.5,28.97,NNE,30,0.0,0.0,82,0.00,,SKC,0.00,VWS V14.00,2013-04-18 11:06:00,
2013-04-18 07:11:00,59.0,53.5,28.97,North,7,0.0,0.0,82,0.00,,SKC,0.00,VWS V14.00,2013-04-18 11:11:00,
2013-04-18 07:16:00,59.0,53.5,28.97,North,7,0.0,0.0,82,0.00,,SKC,0.00,VWS V14.00,2013-04-18 11:16:00,
2013-04-18 07:21:00,58.8,53.3,28.97,North,7,0.0,0.0,82,0.00,,SKC,0.00,VWS V14.00,2013-04-18 11:21:00,
2013-04-18 07:26:00,58.8,53.3,28.97,North,7,0.0,0.0,82,0.00,,SKC,0.00,VWS V14.00,2013-04-18 11:26:00,
2013-04-18 07:31:00,59.0,53.5,28.97,North,7,0.0,0.0,82,0.00,,SKC,0.00,VWS V14.00,2013-04-18 11:31:00,
2013-04-18 07:36:00,59.0,53.5,29.00,North,7,0.0,0.0,82,0.00,,SKC,0.00,VWS V14.00,2013-04-18 11:36:00,
2013-04-18 07:46:00,59.4,54.2,29.00,North,7,0.0,0.0,83,0.00,,SKC,0.00,VWS V14.00,2013-04-18 11:46:00,
2013-04-18 07:51:00,59.4,54.2,29.00,North,7,0.0,0.0,83,0.00,,SKC,0.00,VWS V14.00,2013-04-18 11:51:00,
2013-04-18 07:56:00,59.5,54.4,29.00,North,7,0.0,0.0,83,0.00,,SKC,0.00,VWS V14.00,2013-04-18 11:56:00,
2013-04-18 08:01:00,59.9,54.7,29.00,North,7,0.0,0.0,83,0.00,,SKC,0.00,VWS V14.00,2013-04-18 12:01:00,
2013-04-18 08:10:00,60.4,55.6,29.00,North,7,0.0,0.0,84,0.00,,SKC,0.00,VWS V14.00,2013-04-18 12:10:00,
2013-04-18 08:17:00,60.8,55.6,29.00,North,7,0.0,0.0,83,0.00,,SKC,0.00,VWS V14.00,2013-04-18 12:17:00,
2013-04-18 08:22:00,61.3,56.5,29.00,North,7,0.0,0.0,84,0.00,,SKC,0.00,VWS V14.00,2013-04-18 12:22:00,
2013-04-18 08:27:00,61.5,56.7,29.00,North,7,0.0,0.0,84,0.00,,SKC,0.00,VWS V14.00,2013-04-18 12:27:00,
2013-04-18 08:32:00,61.9,57.0,29.00,North,7,0.0,0.0,84,0.00,,SKC,0.00,VWS V14.00,2013-04-18 12:32:00,
2013-04-18 08:37:00,62.2,57.3,29.00,North,7,0.0,0.0,84,0.00,,SKC,0.00,VWS V14.00,2013-04-18 12:37:00,
2013-04-18 08:42:00,62.6,57.7,29.00,North,7,0.0,0.0,84,0.00,,SKC,0.00,VWS V14.00,2013-04-18 12:42:00,
2013-04-18 08:47:00,63.1,58.6,29.00,North,7,0.0,0.0,85,0.00,,SKC,0.00,VWS V14.00,2013-04-18 12:47:00,
2013-04-18 08:52:00,64.0,59.5,29.00,North,7,0.0,0.0,85,0.00,,SKC,0.00,VWS V14.00,2013-04-18 12:52:00,
2013-04-18 08:57:00,64.8,60.2,29.00,North,7,0.0,0.0,85,0.00,,SKC,0.00,VWS V14.00,2013-04-18 12:57:00,
2013-04-18 09:02:00,65.5,60.9,29.00,North,7,0.0,0.0,85,0.00,,SKC,0.00,VWS V14.00,2013-04-18 13:02:00,
2013-04-18 09:07:00,66.0,61.4,29.00,North,11,0.0,0.0,85,0.00,,SKC,0.00,VWS V14.00,2013-04-18 13:07:00,
2013-04-18 09:12:00,66.6,61.6,29.00,East,87,0.0,0.0,84,0.00,,SKC,0.00,VWS V14.00,2013-04-18 13:12:00,
2013-04-18 09:17:00,67.3,62.3,29.00,SE,137,0.0,0.0,84,0.00,,SKC,0.00,VWS V14.00,2013-04-18 13:17:00,
2013-04-18 09:22:00,67.6,62.6,29.00,South,182,0.0,0.0,84,0.00,,SKC,0.00,VWS V14.00,2013-04-18 13:22:00,
2013-04-18 09:27:00,68.4,63.0,29.00,SSE,168,0.0,0.0,83,0.00,,SKC,0.00,VWS V14.00,2013-04-18 13:27:00,
2013-04-18 09:32:00,68.7,63.0,29.00,SW,229,4.8,4.8,82,0.00,,SKC,0.00,VWS V14.00,2013-04-18 13:32:00,
2013-04-18 09:37:00,68.9,62.8,28.97,SSW,195,2.7,5.8,81,0.00,,SKC,0.00,VWS V14.00,2013-04-18 13:37:00,
2013-04-18 09:42:00,69.3,63.2,28.97,SSW,213,0.0,2.7,81,0.00,,SKC,0.00,VWS V14.00,2013-04-18 13:42:00,
2013-04-18 09:47:00,69.6,63.2,28.97,SSW,195,3.8,5.4,80,0.00,,SKC,0.00,VWS V14.00,2013-04-18 13:47:00,
2013-04-18 09:52:00,70.2,63.3,28.97,SSW,201,2.7,2.7,79,0.00,,SKC,0.00,VWS V14.00,2013-04-18 13:52:00,
2013-04-18 09:57:00,70.5,63.3,28.97,South,182,4.3,7.6,78,0.00,,SKC,0.00,VWS V14.00,2013-04-18 13:57:00,
2013-04-18 10:02:00,70.9,63.3,28.97,SSW,212,3.8,4.9,77,0.00,,SKC,0.00,VWS V14.00,2013-04-18 14:02:00,
2013-04-18 10:07:00,71.1,62.7,29.00,SSW,192,4.8,6.3,75,0.00,,SKC,0.00,VWS V14.00,2013-04-18 14:07:00,
2013-04-18 10:12:00,71.2,62.9,29.00,WSW,257,3.8,4.0,75,0.00,,SKC,0.00,VWS V14.00,2013-04-18 14:12:00,
2013-04-18 10:17:00,71.2,62.5,29.00,SSW,206,5.9,5.9,74,0.00,,SKC,0.00,VWS V14.00,2013-04-18 14:17:00,
2013-04-18 10:22:00,71.1,62.0,29.00,SSE,166,3.8,3.8,73,0.00,,SKC,0.00,VWS V14.00,2013-04-18 14:22:00,
2013-04-18 10:27:00,71.1,62.0,29.00,SSW,213,4.8,5.8,73,0.00,,SKC,0.00,VWS V14.00,2013-04-18 14:27:00,
2013-04-18 10:32:00,71.1,61.6,29.00,SW,233,3.8,3.8,72,0.00,,SKC,0.00,VWS V14.00,2013-04-18 14:32:00,
2013-04-18 10:37:00,71.6,61.3,29.00,SW,219,4.3,7.6,70,0.00,,SKC,0.00,VWS V14.00,2013-04-18 14:37:00,
2013-04-18 10:42:00,72.0,61.2,29.00,SSE,152,4.3,6.3,69,0.00,,SKC,0.00,VWS V14.00,2013-04-18 14:42:00,
2013-04-18 10:47:00,72.3,61.6,29.00,SW,229,0.0,6.3,69,0.00,,SKC,0.00,VWS V14.00,2013-04-18 14:47:00,
2013-04-18 10:52:00,72.9,62.1,29.00,South,174,6.4,7.6,69,0.00,,SKC,0.00,VWS V14.00,2013-04-18 14:52:00,
2013-04-18 10:57:00,73.2,62.0,29.00,SW,230,3.8,8.1,68,0.00,,SKC,0.00,VWS V14.00,2013-04-18 14:57:00,
2013-04-18 11:02:00,73.6,62.0,29.00,SSW,213,5.4,5.4,67,0.00,,SKC,0.00,VWS V14.00,2013-04-18 15:02:00,
2013-04-18 11:07:00,73.9,61.4,29.00,WSW,246,0.0,5.8,65,0.00,,SKC,0.00,VWS V14.00,2013-04-18 15:07:00,
2013-04-18 11:12:00,74.1,62.0,29.00,WSW,240,3.2,6.3,66,0.00,,SKC,0.00,VWS V14.00,2013-04-18 15:12:00,
2013-04-18 11:17:00,74.7,62.6,29.00,ESE,122,3.2,6.3,66,0.00,,SKC,0.00,VWS V14.00,2013-04-18 15:17:00,
2013-04-18 11:22:00,75.2,62.6,29.00,WSW,238,4.8,7.6,65,0.00,,SKC,0.00,VWS V14.00,2013-04-18 15:22:00,
2013-04-18 11:27:00,75.2,61.8,29.00,SW,228,2.7,7.6,63,0.00,,SKC,0.00,VWS V14.00,2013-04-18 15:27:00,
2013-04-18 11:32:00,75.0,61.1,29.00,WSW,242,0.0,6.3,62,0.00,,SKC,0.00,VWS V14.00,2013-04-18 15:32:00,
2013-04-18 11:37:00,75.2,61.3,28.97,ESE,117,4.8,6.3,62,0.00,,SKC,0.00,VWS V14.00,2013-04-18 15:37:00,
2013-04-18 11:42:00,75.4,61.0,28.97,South,173,4.3,5.8,61,0.00,,SKC,0.00,VWS V14.00,2013-04-18 15:42:00,
2013-04-18 11:47:00,76.3,62.3,28.97,SSE,154,7.0,7.0,62,0.00,,SKC,0.00,VWS V14.00,2013-04-18 15:47:00,
2013-04-18 11:52:00,76.5,62.0,28.97,South,186,0.0,4.9,61,0.00,,SKC,0.00,VWS V14.00,2013-04-18 15:52:00,
2013-04-18 11:57:00,76.6,61.7,28.97,SE,143,2.7,5.4,60,0.00,,SKC,0.00,VWS V14.00,2013-04-18 15:57:00,
2013-04-18 12:02:00,76.8,60.9,28.97,WSW,242,6.4,6.4,58,0.00,,SKC,0.00,VWS V14.00,2013-04-18 16:02:00,
2013-04-18 12:07:00,76.8,60.9,28.97,South,170,0.0,5.8,58,0.00,,SKC,0.00,VWS V14.00,2013-04-18 16:07:00,
2013-04-18 12:12:00,77.4,59.4,28.97,SW,224,3.8,6.3,54,0.00,,SKC,0.00,VWS V14.00,2013-04-18 16:12:00,
2013-04-18 12:17:00,78.1,60.6,28.97,NW,311,0.0,6.3,55,0.00,,SKC,0.00,VWS V14.00,2013-04-18 16:17:00,
2013-04-18 12:22:00,78.3,60.3,28.97,WSW,246,6.4,6.4,54,0.00,,SKC,0.00,VWS V14.00,2013-04-18 16:22:00,
2013-04-18 12:27:00,78.6,60.1,28.97,SSW,208,5.9,7.6,53,0.00,,SKC,0.00,VWS V14.00,2013-04-18 16:27:00,
2013-04-18 12:32:00,79.3,60.2,28.97,South,170,7.0,7.6,52,0.00,,SKC,0.00,VWS V14.00,2013-04-18 16:32:00,
2013-04-18 12:37:00,80.2,59.9,28.97,South,187,7.0,8.3,50,0.00,,SKC,0.00,VWS V14.00,2013-04-18 16:37:00,
2013-04-18 12:42:00,80.6,59.1,28.97,South,169,4.3,6.3,48,0.00,,SKC,0.00,VWS V14.00,2013-04-18 16:42:00,
2013-04-18 12:47:00,81.1,58.4,28.94,SW,214,7.0,8.7,46,0.00,,SKC,0.00,VWS V14.00,2013-04-18 16:47:00,
2013-04-18 12:52:00,81.7,58.3,28.94,SW,218,0.0,8.3,45,0.00,,SKC,0.00,VWS V14.00,2013-04-18 16:52:00,
2013-04-18 12:57:00,82.2,58.8,28.94,SSW,195,7.5,8.3,45,0.00,,SKC,0.00,VWS V14.00,2013-04-18 16:57:00,
2013-04-18 13:02:00,82.6,58.5,28.94,SSW,208,5.9,6.7,44,0.00,,SKC,0.00,VWS V14.00,2013-04-18 17:02:00,
2013-04-18 13:07:00,82.9,58.8,28.94,SSW,193,7.0,7.6,44,0.00,,SKC,0.00,VWS V14.00,2013-04-18 17:07:00,
2013-04-18 13:12:00,83.3,57.8,28.94,WNW,303,0.0,6.7,42,0.00,,SKC,0.00,VWS V14.00,2013-04-18 17:12:00,
2013-04-18 13:17:00,84.0,58.5,28.94,South,180,3.8,8.1,42,0.00,,SKC,0.00,VWS V14.00,2013-04-18 17:17:00,
2013-04-18 13:22:00,84.7,58.5,28.94,SSW,213,0.0,3.6,41,0.00,,SKC,0.00,VWS V14.00,2013-04-18 17:22:00,
2013-04-18 13:27:00,85.1,58.1,28.94,SSW,196,3.2,7.6,40,0.00,,SKC,0.00,VWS V14.00,2013-04-18 17:27:00,
2013-04-18 13:32:00,85.5,57.7,28.94,SW,226,6.4,6.4,39,0.00,,SKC,0.00,VWS V14.00,2013-04-18 17:32:00,
2013-04-18 13:37:00,85.8,58.0,28.94,SW,224,0.0,8.3,39,0.00,,SKC,0.00,VWS V14.00,2013-04-18 17:37:00,
2013-04-18 13:42:00,85.8,55.8,28.94,SW,234,3.8,10.1,36,0.00,,SKC,0.00,VWS V14.00,2013-04-18 17:42:00,
2013-04-18 13:47:00,86.0,56.7,28.94,SSW,194,2.7,10.1,37,0.00,,SKC,0.00,VWS V14.00,2013-04-18 17:47:00,
2013-04-18 13:52:00,86.4,56.3,28.94,SW,228,6.4,8.3,36,0.00,,SKC,0.00,VWS V14.00,2013-04-18 17:52:00,
2013-04-18 13:57:00,86.4,54.7,28.94,SW,229,6.4,11.0,34,0.00,,SKC,0.00,VWS V14.00,2013-04-18 17:57:00,
2013-04-18 14:03:00,86.4,53.0,28.91,SW,226,6.4,8.7,32,0.00,,SKC,0.00,VWS V14.00,2013-04-18 18:03:00,
2013-04-18 14:08:00,86.4,53.0,28.91,WSW,239,9.7,11.9,32,0.00,,SKC,0.00,VWS V14.00,2013-04-18 18:08:00,
2013-04-18 14:13:00,86.4,53.0,28.91,SSW,194,7.0,9.6,32,0.00,,SKC,0.00,VWS V14.00,2013-04-18 18:13:00,
2013-04-18 14:18:00,86.5,53.2,28.91,South,176,9.7,9.7,32,0.00,,SKC,0.00,VWS V14.00,2013-04-18 18:18:00,
2013-04-18 14:23:00,86.7,53.4,28.91,SSW,209,10.5,10.5,32,0.00,,SKC,0.00,VWS V14.00,2013-04-18 18:23:00,
2013-04-18 14:28:00,86.7,52.5,28.91,SW,215,7.0,10.1,31,0.00,,SKC,0.00,VWS V14.00,2013-04-18 18:28:00,
2013-04-18 14:33:00,86.9,51.8,28.91,SW,230,4.8,8.3,30,0.00,,SKC,0.00,VWS V14.00,2013-04-18 18:33:00,
2013-04-18 14:38:00,87.1,51.9,28.91,SSW,209,7.0,8.7,30,0.00,,SKC,0.00,VWS V14.00,2013-04-18 18:38:00,
2013-04-18 14:43:00,87.3,52.1,28.91,SW,215,6.4,6.4,30,0.00,,SKC,0.00,VWS V14.00,2013-04-18 18:43:00,
2013-04-18 14:48:00,87.4,52.2,28.91,South,184,11.5,12.3,30,0.00,,SKC,0.00,VWS V14.00,2013-04-18 18:48:00,
2013-04-18 14:53:00,87.4,52.2,28.91,SW,235,10.5,10.5,30,0.00,,SKC,0.00,VWS V14.00,2013-04-18 18:53:00,
2013-04-18 14:58:00,87.6,51.5,28.91,ESE,118,3.8,9.6,29,0.00,,SKC,0.00,VWS V14.00,2013-04-18 18:58:00,
2013-04-18 15:03:00,87.8,51.6,28.91,SSW,193,8.6,12.3,29,0.00,,SKC,0.00,VWS V14.00,2013-04-18 19:03:00,
2013-04-18 15:08:00,87.6,51.5,28.91,SE,125,6.4,12.3,29,0.00,,SKC,0.00,VWS V14.00,2013-04-18 19:08:00,
2013-04-18 15:13:00,87.4,51.3,28.91,SW,227,3.8,8.7,29,0.00,,SKC,0.00,VWS V14.00,2013-04-18 19:13:00,
2013-04-18 15:18:00,87.4,51.3,28.91,SSW,207,7.0,11.0,29,0.00,,SKC,0.00,VWS V14.00,2013-04-18 19:18:00,
2013-04-18 15:23:00,87.6,51.5,28.91,WSW,241,9.9,10.5,29,0.00,,SKC,0.00,VWS V14.00,2013-04-18 19:23:00,
2013-04-18 15:28:00,87.4,50.4,28.91,ESE,112,5.9,13.2,28,0.00,,SKC,0.00,VWS V14.00,2013-04-18 19:28:00,
2013-04-18 15:33:00,87.1,50.1,28.88,SE,143,7.5,11.0,28,0.00,,SKC,0.00,VWS V14.00,2013-04-18 19:33:00,
2013-04-18 15:38:00,87.1,50.1,28.88,WSW,237,9.9,11.4,28,0.00,,SKC,0.00,VWS V14.00,2013-04-18 19:38:00,
2013-04-18 15:43:00,87.1,50.1,28.88,East,81,7.5,10.5,28,0.00,,SKC,0.00,VWS V14.00,2013-04-18 19:43:00,
2013-04-18 15:48:00,87.1,50.1,28.88,SW,214,3.8,10.5,28,0.00,,SKC,0.00,VWS V14.00,2013-04-18 19:48:00,
2013-04-18 15:53:00,86.9,49.9,28.88,SSW,213,9.7,13.2,28,0.00,,SKC,0.00,VWS V14.00,2013-04-18 19:53:00,
2013-04-18 15:58:00,86.5,49.6,28.88,SSW,192,15.8,15.8,28,0.00,,SKC,0.00,VWS V14.00,2013-04-18 19:58:00,
2013-04-18 16:03:00,86.2,49.3,28.88,SE,136,6.4,13.2,28,0.00,,SKC,0.00,VWS V14.00,2013-04-18 20:03:00,
2013-04-18 16:08:00,86.0,49.1,28.88,SSW,204,8.6,13.2,28,0.00,,SKC,0.00,VWS V14.00,2013-04-18 20:08:00,
2013-04-18 16:13:00,85.8,49.0,28.88,WSW,241,9.9,11.0,28,0.00,,SKC,0.00,VWS V14.00,2013-04-18 20:13:00,
2013-04-18 16:18:00,85.6,48.8,28.88,WSW,237,0.0,12.3,28,0.00,,SKC,0.00,VWS V14.00,2013-04-18 20:18:00,
2013-04-18 16:23:00,85.6,48.8,28.88,WSW,242,0.0,6.3,28,0.00,,SKC,0.00,VWS V14.00,2013-04-18 20:23:00,
2013-04-18 16:28:00,85.3,48.5,28.88,SSW,203,5.9,9.6,28,0.00,,SKC,0.00,VWS V14.00,2013-04-18 20:28:00,
2013-04-18 16:33:00,84.9,48.2,28.88,SE,139,0.0,11.0,28,0.00,,SKC,0.00,VWS V14.00,2013-04-18 20:33:00,
2013-04-18 16:38:00,84.7,49.0,28.88,SSE,157,9.9,11.0,29,0.00,,SKC,0.00,VWS V14.00,2013-04-18 20:38:00,
2013-04-18 16:43:00,84.6,47.9,28.88,SSW,202,7.5,10.5,28,0.00,,SKC,0.00,VWS V14.00,2013-04-18 20:43:00,
2013-04-18 16:48:00,84.4,47.8,28.85,SSW,212,6.4,10.5,28,0.00,,SKC,0.00,VWS V14.00,2013-04-18 20:48:00,
2013-04-18 16:53:00,83.8,48.2,28.85,SW,227,9.9,9.9,29,0.00,,SKC,0.00,VWS V14.00,2013-04-18 20:53:00,
2013-04-18 16:58:00,83.3,47.8,28.85,SSW,199,9.1,9.6,29,0.00,,SKC,0.00,VWS V14.00,2013-04-18 20:58:00,
2013-04-18 17:03:00,83.3,47.8,28.85,South,185,6.4,13.2,29,0.00,,SKC,0.00,VWS V14.00,2013-04-18 21:03:00,
2013-04-18 17:08:00,83.1,47.6,28.85,SSE,156,14.8,14.8,29,0.00,,SKC,0.00,VWS V14.00,2013-04-18 21:08:00,
2013-04-18 17:13:00,82.6,47.1,28.85,South,185,12.1,12.1,29,0.00,,SKC,0.00,VWS V14.00,2013-04-18 21:13:00,
2013-04-18 17:18:00,82.0,46.7,28.85,SSW,198,4.8,11.9,29,0.00,,SKC,0.00,VWS V14.00,2013-04-18 21:18:00,
2013-04-18 17:23:00,81.5,46.2,28.85,SSE,154,12.1,12.1,29,0.00,,SKC,0.00,VWS V14.00,2013-04-18 21:23:00,
2013-04-18 17:28:00,81.1,45.9,28.85,SSW,207,3.8,10.1,29,0.00,,SKC,0.00,VWS V14.00,2013-04-18 21:28:00,
2013-04-18 17:33:00,81.1,45.9,28.85,South,175,4.8,7.6,29,0.00,,SKC,0.00,VWS V14.00,2013-04-18 21:33:00,
2013-04-18 17:38:00,81.1,45.9,28.85,SSW,212,5.9,11.9,29,0.00,,SKC,0.00,VWS V14.00,2013-04-18 21:38:00,
2013-04-18 17:43:00,81.3,47.0,28.85,South,178,7.5,8.3,30,0.00,,SKC,0.00,VWS V14.00,2013-04-18 21:43:00,
2013-04-18 17:48:00,81.1,46.8,28.85,SSW,206,7.0,10.1,30,0.00,,SKC,0.00,VWS V14.00,2013-04-18 21:48:00,
2013-04-18 17:53:00,81.0,46.6,28.85,South,177,7.0,8.7,30,0.00,,SKC,0.00,VWS V14.00,2013-04-18 21:53:00,
2013-04-18 17:58:00,81.0,46.6,28.85,SSW,193,3.2,8.7,30,0.00,,SKC,0.00,VWS V14.00,2013-04-18 21:58:00,
2013-04-18 18:03:00,81.0,46.6,28.85,SSW,204,3.2,6.3,30,0.00,,SKC,0.00,VWS V14.00,2013-04-18 22:03:00,
2013-04-18 18:08:00,81.0,46.6,28.85,SSW,206,4.8,8.1,30,0.00,,SKC,0.00,VWS V14.00,2013-04-18 22:08:00,
2013-04-18 18:13:00,81.0,46.6,28.85,SW,225,6.4,6.4,30,0.00,,SKC,0.00,VWS V14.00,2013-04-18 22:13:00,
2013-04-18 18:18:00,80.6,46.3,28.85,SW,226,5.9,8.1,30,0.00,,SKC,0.00,VWS V14.00,2013-04-18 22:18:00,
2013-04-18 18:23:00,80.2,46.0,28.85,SSW,192,4.3,7.6,30,0.00,,SKC,0.00,VWS V14.00,2013-04-18 22:23:00,
2013-04-18 18:28:00,79.9,45.7,28.85,SSW,206,6.4,7.6,30,0.00,,SKC,0.00,VWS V14.00,2013-04-18 22:28:00,
2013-04-18 18:33:00,79.5,45.4,28.85,SSE,157,10.5,10.5,30,0.00,,SKC,0.00,VWS V14.00,2013-04-18 22:33:00,
2013-04-18 18:38:00,79.3,45.2,28.85,SW,219,6.4,8.7,30,0.00,,SKC,0.00,VWS V14.00,2013-04-18 22:38:00,
2013-04-18 18:43:00,79.3,45.2,28.85,South,188,7.5,7.6,30,0.00,,SKC,0.00,VWS V14.00,2013-04-18 22:43:00,
2013-04-18 18:48:00,79.2,45.1,28.85,SSW,205,3.8,7.6,30,0.00,,SKC,0.00,VWS V14.00,2013-04-18 22:48:00,
2013-04-18 18:53:00,79.0,45.8,28.85,SSW,201,4.8,5.4,31,0.00,,SKC,0.00,VWS V14.00,2013-04-18 22:53:00,
2013-04-18 18:58:00,79.0,45.8,28.85,WSW,237,0.0,7.6,31,0.00,,SKC,0.00,VWS V14.00,2013-04-18 22:58:00,
2013-04-18 19:03:00,78.8,45.6,28.82,SW,216,7.5,7.5,31,0.00,,SKC,0.00,VWS V14.00,2013-04-18 23:03:00,
2013-04-18 19:08:00,78.6,45.5,28.82,SW,224,9.1,9.1,31,0.00,,SKC,0.00,VWS V14.00,2013-04-18 23:08:00,
2013-04-18 19:13:00,78.4,45.3,28.82,SSW,195,7.5,7.6,31,0.00,,SKC,0.00,VWS V14.00,2013-04-18 23:13:00,
2013-04-18 19:18:00,78.3,45.2,28.82,SW,226,7.5,8.1,31,0.00,,SKC,0.00,VWS V14.00,2013-04-18 23:18:00,
2013-04-18 19:23:00,78.1,45.0,28.82,WSW,237,6.4,8.1,31,0.00,,SKC,0.00,VWS V14.00,2013-04-18 23:23:00,
2013-04-18 19:28:00,77.9,44.9,28.82,SSW,208,5.9,8.1,31,0.00,,SKC,0.00,VWS V14.00,2013-04-18 23:28:00,
2013-04-18 19:33:00,77.5,45.4,28.82,SSE,155,7.0,8.7,32,0.00,,SKC,0.00,VWS V14.00,2013-04-18 23:33:00,
2013-04-18 19:38:00,77.4,45.2,28.82,South,177,9.7,9.7,32,0.00,,SKC,0.00,VWS V14.00,2013-04-18 23:38:00,
2013-04-18 19:43:00,77.2,45.1,28.82,SW,231,12.1,12.1,32,0.00,,SKC,0.00,VWS V14.00,2013-04-18 23:43:00,
2013-04-18 19:49:00,76.8,44.8,28.82,SW,223,6.4,10.1,32,0.00,,SKC,0.00,VWS V14.00,2013-04-18 23:49:00,
2013-04-18 19:54:00,76.8,45.6,28.82,SSW,207,4.8,7.6,33,0.00,,SKC,0.00,VWS V14.00,2013-04-18 23:54:00,
2013-04-18 19:59:00,76.5,45.2,28.82,SSW,202,5.9,7.6,33,0.00,,SKC,0.00,VWS V14.00,2013-04-18 23:59:00,
2013-04-18 20:04:00,76.3,45.1,28.82,South,182,5.9,6.3,33,0.00,,SKC,0.00,VWS V14.00,2013-04-19 00:04:00,
2013-04-18 20:09:00,76.1,44.9,28.82,South,186,3.2,6.3,33,0.00,,SKC,0.00,VWS V14.00,2013-04-19 00:09:00,
2013-04-18 20:14:00,75.7,44.6,28.82,SSW,196,5.9,8.7,33,0.00,,SKC,0.00,VWS V14.00,2013-04-19 00:14:00,
2013-04-18 20:19:00,75.6,45.2,28.82,South,174,0.0,10.5,34,0.00,,SKC,0.00,VWS V14.00,2013-04-19 00:19:00,
2013-04-18 20:24:00,75.4,45.1,28.82,South,189,9.7,9.7,34,0.00,,SKC,0.00,VWS V14.00,2013-04-19 00:24:00,
2013-04-18 20:29:00,75.2,44.9,28.82,SSW,206,7.5,8.3,34,0.00,,SKC,0.00,VWS V14.00,2013-04-19 00:29:00,
2013-04-18 20:34:00,75.2,44.9,28.82,WSW,249,6.4,6.4,34,0.00,,SKC,0.00,VWS V14.00,2013-04-19 00:34:00,
2013-04-18 20:39:00,75.0,45.5,28.82,SSW,211,9.1,9.1,35,0.00,,SKC,0.00,VWS V14.00,2013-04-19 00:39:00,
2013-04-18 20:44:00,75.0,45.5,28.82,SW,218,0.0,7.2,35,0.00,,SKC,0.00,VWS V14.00,2013-04-19 00:44:00,
2013-04-18 20:49:00,74.8,45.4,28.82,South,173,3.8,7.2,35,0.00,,SKC,0.00,VWS V14.00,2013-04-19 00:49:00,
2013-04-18 20:54:00,74.7,46.0,28.82,SSE,166,0.0,5.4,36,0.00,,SKC,0.00,VWS V14.00,2013-04-19 00:54:00,
2013-04-18 20:59:00,74.7,46.0,28.82,SSW,209,3.8,8.7,36,0.00,,SKC,0.00,VWS V14.00,2013-04-19 00:59:00,
2013-04-18 21:04:00,74.5,45.8,28.82,SW,227,5.9,8.7,36,0.00,,SKC,0.00,VWS V14.00,2013-04-19 01:04:00,
2013-04-18 21:09:00,74.3,45.7,28.82,SW,233,9.1,10.1,36,0.00,,SKC,0.00,VWS V14.00,2013-04-19 01:09:00,
2013-04-18 21:14:00,74.1,45.5,28.82,SE,140,3.8,5.4,36,0.00,,SKC,0.00,VWS V14.00,2013-04-19 01:14:00,
2013-04-18 21:19:00,74.1,46.2,28.82,West,272,4.3,10.1,37,0.00,,SKC,0.00,VWS V14.00,2013-04-19 01:19:00,
2013-04-18 21:24:00,73.9,46.0,28.82,SSW,200,6.4,8.1,37,0.00,,SKC,0.00,VWS V14.00,2013-04-19 01:24:00,
2013-04-18 21:29:00,73.9,46.0,28.82,SSE,166,3.2,8.1,37,0.00,,SKC,0.00,VWS V14.00,2013-04-19 01:29:00,
2013-04-18 21:34:00,73.9,46.0,28.82,South,179,3.8,7.6,37,0.00,,SKC,0.00,VWS V14.00,2013-04-19 01:34:00,
2013-04-18 21:39:00,73.8,45.9,28.82,WSW,237,6.4,7.6,37,0.00,,SKC,0.00,VWS V14.00,2013-04-19 01:39:00,
2013-04-18 21:44:00,73.8,46.6,28.82,SW,216,3.8,8.1,38,0.00,,SKC,0.00,VWS V14.00,2013-04-19 01:44:00,
2013-04-18 21:49:00,73.8,46.6,28.82,NE,44,4.8,8.1,38,0.00,,SKC,0.00,VWS V14.00,2013-04-19 01:49:00,
2013-04-18 21:54:00,73.6,46.4,28.82,WSW,242,0.0,5.4,38,0.00,,SKC,0.00,VWS V14.00,2013-04-19 01:54:00,
2013-04-18 21:59:00,73.4,46.3,28.82,SSW,209,7.5,7.5,38,0.00,,SKC,0.00,VWS V14.00,2013-04-19 01:59:00,
2013-04-18 22:04:00,73.4,47.0,28.82,South,175,3.8,6.3,39,0.00,,SKC,0.00,VWS V14.00,2013-04-19 02:04:00,
2013-04-18 22:09:00,73.4,47.0,28.82,SE,136,3.2,11.9,39,0.00,,SKC,0.00,VWS V14.00,2013-04-19 02:09:00,
2013-04-18 22:14:00,73.4,47.0,28.82,South,173,6.4,7.6,39,0.00,,SKC,0.00,VWS V14.00,2013-04-19 02:14:00,
2013-04-18 22:19:00,73.4,47.6,28.82,South,186,7.0,8.3,40,0.00,,SKC,0.00,VWS V14.00,2013-04-19 02:19:00,
2013-04-18 22:24:00,73.6,47.8,28.82,SW,222,7.5,8.7,40,0.00,,SKC,0.00,VWS V14.00,2013-04-19 02:24:00,
2013-04-18 22:29:00,73.6,47.8,28.82,SW,216,4.8,8.7,40,0.00,,SKC,0.00,VWS V14.00,2013-04-19 02:29:00,
2013-04-18 22:34:00,73.6,47.8,28.82,South,178,7.0,8.3,40,0.00,,SKC,0.00,VWS V14.00,2013-04-19 02:34:00,
2013-04-18 22:39:00,73.6,47.8,28.82,SSW,211,4.3,8.7,40,0.00,,SKC,0.00,VWS V14.00,2013-04-19 02:39:00,
2013-04-18 22:44:00,73.6,47.8,28.82,SSW,194,3.8,6.3,40,0.00,,SKC,0.00,VWS V14.00,2013-04-19 02:44:00,
2013-04-18 22:49:00,73.4,47.6,28.79,SW,220,7.5,7.6,40,0.00,,SKC,0.00,VWS V14.00,2013-04-19 02:49:00,
2013-04-18 22:54:00,73.4,48.3,28.79,SSE,153,4.3,9.6,41,0.00,,SKC,0.00,VWS V14.00,2013-04-19 02:54:00,
2013-04-18 22:59:00,73.4,48.3,28.79,SSW,203,4.8,9.6,41,0.00,,SKC,0.00,VWS V14.00,2013-04-19 02:59:00,
2013-04-18 23:04:00,73.4,48.3,28.79,SW,226,3.2,8.7,41,0.00,,SKC,0.00,VWS V14.00,2013-04-19 03:04:00,
2013-04-18 23:09:00,73.4,48.3,28.79,SW,235,2.7,8.7,41,0.00,,SKC,0.00,VWS V14.00,2013-04-19 03:09:00,
2013-04-18 23:14:00,73.4,48.3,28.79,ESE,116,4.8,7.2,41,0.00,,SKC,0.00,VWS V14.00,2013-04-19 03:14:00,
2013-04-18 23:19:00,73.4,48.3,28.76,SSW,206,3.8,8.1,41,0.00,,SKC,0.00,VWS V14.00,2013-04-19 03:19:00,
2013-04-18 23:24:00,73.2,48.1,28.76,WSW,244,4.8,5.8,41,0.00,,SKC,0.00,VWS V14.00,2013-04-19 03:24:00,
2013-04-18 23:29:00,73.2,48.8,28.76,SSW,204,9.1,9.1,42,0.00,,SKC,0.00,VWS V14.00,2013-04-19 03:29:00,
2013-04-18 23:34:00,73.2,48.8,28.79,South,191,3.2,10.1,42,0.00,,SKC,0.00,VWS V14.00,2013-04-19 03:34:00,
2013-04-18 23:39:00,73.0,48.6,28.79,SSE,156,4.3,10.1,42,0.00,,SKC,0.00,VWS V14.00,2013-04-19 03:39:00,
2013-04-18 23:44:00,73.0,48.6,28.79,SSW,198,6.4,7.6,42,0.00,,SKC,0.00,VWS V14.00,2013-04-19 03:44:00,
2013-04-18 23:49:00,73.2,48.8,28.76,South,171,7.5,10.5,42,0.00,,SKC,0.00,VWS V14.00,2013-04-19 03:49:00,
2013-04-18 23:54:00,73.2,48.8,28.76,SSW,200,4.3,7.6,42,0.00,,SKC,0.00,VWS V14.00,2013-04-19 03:54:00,
2013-04-18 23:59:00,73.2,48.8,28.76,WSW,246,7.0,11.0,42,0.00,,SKC,0.00,VWS V14.00,2013-04-19 03:59:00,